Powrót do katalogu

TITAN 3C TRANSTAGE R/B

AktywnyMEO
NORAD 3692·ROCKET BODY·🇺🇸 United States

Wystrzelony Feb 9, 1969 z Cape Canaveral Space Force Station

Loading…

Następne Przeloty (najbliższe 24 godziny)

TLE

ŚwieżeSource: Space-Track

Epoka: Sep 14, 2026, 13:48 UTC

1 03692U 69013B   26257.57501435 -.00000257  00000-0  00000-0 0  9996
2 03692   1.5396  77.4316 0164649  39.3013  81.5308  0.97536746 43192

Śledź TITAN 3C TRANSTAGE R/B w czasie rzeczywistym z AllMySat

Download on the App Store